Probability
1 1 0 0 0 0 0 0 0 0 0 0 0 0 0 0 0 0 0 0 0 0 0 0 0 0 0 0 0 0 0 0 0 0 0 0 0 0 0 0 0 0 0 0 0 0 0 0 0
1 0 0 0 0 0 0 0 0 0 0 0 0 0 0 0 0 0 0 0 0 0 0 0 0 0 0 0 0 0 0 0 0 0 0 0 0 0 0 0 0 0 0 0 0 0 0 0 0
0 0 0 0 0 0 0 0 0 0 0 0 0 0 0 0 0 0 0 0 0 0 0 0 0 0 0 0 0 0 0 0 0 0 0 0 0 0 0 0 0 0 0 0 0 0 0 0 0
0 0 0 0 0 0 0 0 0 0 0 0 0 0 0 0 0 0 0 0 0 0 0 0 0 0 0 0 0 0 0 0 0 0 0 0 0 0 0 0 0 0 0 0 0 0 0 0 0
0 0 0 0 0 0 0 0 0 0 0 0 0 0 0 0 0 0 0 0 0 0 0 0 0 0 0 0 0 0 0 0 0 0 0 0 0 0 0 0 0 0 0 0 0 0 0 0 0
0 0 0 0 0 0 0 0 0 0 0 0 0 0 0 0 0 0 0 0 0 0 0 0 0 0 0 0 0 0 0 0 0 0 0 0 0 0 0 0 0 0 0 0 0 0 0 0 0
0 0 0 0 0 0 0 0 0 0 0 0 0 0 0 0 0 0 0 0 0 0 0 0 0 0 0 0 0 0 0 0 0 0 0 0 0 0 0 0 0 0 0 0 0 0 0 0 0
0 0 0 0 0 0 0 0 0 0 0 0 0 0 0 0 0 0 0 0 0 0 0 0 0 0 0 0 0 0 0 0 0 0 0 0 0 0 0 0 0 0 0 0 0 0 0 0 0
0 0 0 0 0 0 0 0 0 0 0 0 0 0 0 0 0 0 0 0 0 0 0 0 0 0 0 0 0 0 0 0 0 0 0 0 0 0 0 0 0 0 0 0 0 0 0 0 0
0 0 0 0 0 0 0 0 0 0 0 0 0 0 0 0 0 0 0 0 0 0 0 0 0 0 0 0 0 0 0 0 0 0 0 0 0 0 0 0 0 0 0 0 0 0 0 0 0
0 0 0 0 0 0 0 0 0 0 0 0 0 0 0 0 0 0 0 0 0 0 0 0 0 0 0 0 0 0 0 0 0 0 0 0 0 0 0 0 0 0 0 0 0 0 0 0 0
0 0 0 0 0 0 0 0 0 0 0 0 0 0 0 0 0 0 0 0 0 0 0 0 0 0 0 0 0 0 0 0 0 0 0 0 0 0 0 0 0 0 0 0 0 0 0 0 0
0 0 0 0 0 0 0 0 0 0 0 0 0 0 0 0 0 0 0 0 0 0 0 0 0 0 0 0 0 0 0 0 0 0 0 0 0 0 0 0 0 0 0 0 0 0 0 0 0
0 0 0 0 0 0 0 0 0 0 0 0 0 0 0 0 0 0 0 0 0 0 0 0 0 0 0 0 0 0 0 0 0 0 0 0 0 0 0 0 0 0 0 0 0 0 0 0 0
0 0 0 0 0 0 0 0 0 0 0 0 0 0 0 0 0 0 0 0 0 0 0 0 0 0 0 0 0 0 0 0 0 0 0 0 0 0 0 0 0 0 0 0 0 0 0 0 0
0 0 0 0 0 0 0 0 0 0 0 0 0 0 0 0 0 0 0 0 0 0 0 0 0 0 0 0 0 0 0 0 0 0 0 0 0 0 0 0 0 0 0 0 0 0 0 0 0
0 0 0 0 0 0 0 0 0 0 0 0 0 0 0 0 0 0 0 0 0 0 0 0 0 0 0 0 0 0 0 0 0 0 0 0 0 0 0 0 0 0 0 0 0 0 0 0 0
0 0 0 0 0 0 0 0 0 0 0 0 0 0 0 0 0 0 0 0 0 0 0 0 0 0 0 0 0 0 0 0 0 0 0 0 0 0 0 0 0 0 0 0 0 0 0 0 0
0 0 0 0 0 0 0 0 0 0 0 0 0 0 0 0 0 0 0 0 0 0 0 0 0 0 0 0 0 0 0 0 0 0 0 0 0 0 0 0 0 0 0 0 0 0 0 0 0
0 0 0 0 0 0 0 0 0 0 0 0 0 0 0 0 0 0 0 0 0 0 0 0 0 0 0 0 0 0 0 0 0 0 0 0 0 0 0 0 0 0 0 0 0 0 0 0 0
0 0 0 0 0 0 0 0 0 0 0 0 0 0 0 0 0 0 0 0 0 0 0 0 0 0 0 0 0 0 0 0 0 0 0 0 0 0 0 0 0 0 0 0 0 0 0 0 0
0 0 0 0 0 0 0 0 0 0 0 0 0 0 0 0 0 0 0 0 0 0 0 0 0 0 0 0 0 0 0 0 0 0 0 0 0 0 0 0 0 0 0 0 0 0 0 0 0
0 0 0 0 0 0 0 0 0 0 0 0 0 0 0 0 0 0 0 0 0 0 0 0 0 0 0 0 0 0 0 0 0 0 0 0 0 0 0 0 0 0 0 0 0 0 0 0 0
0 0 0 0 0 0 0 0 0 0 0 0 0 0 0 0 0 0 0 0 0 0 0 0 0 0 0 0 0 0 0 0 0 0 0 0 0 0 0 0 0 0 0 0 0 0 0 0 0
0 0 0 0 0 0 0 0 0 0 0 0 0 0 0 0 0 0 0 0 0 0 0 0 0 0 0 0 0 0 0 0 0 0 0 0 0 0 0 0 0 0 0 0 0 0 0 0 0
0 0 0 0 0 0 0 0 0 0 0 0 0 0 0 0 0 0 0 0 0 0 0 0 0 0 0 0 0 0 0 0 0 0 0 0 0 0 0 0 0 0 0 0 0 0 0 0 0
0 0 0 0 0 0 0 0 0 0 0 0 0 0 0 0 0 0 0 0 0 0 0 0 0 0 0 0 0 0 0 0 0 0 0 0 0 0 0 0 0 0 0 0 0 0 0 0 0
0 0 0 0 0 0 0 0 0 0 0 0 0 0 0 0 0 0 0 0 0 0 0 0 0 0 0 0 0 0 0 0 0 0 0 0 0 0 0 0 0 0 0 0 0 0 0 0 0
0 0 0 0 0 0 0 0 0 0 0 0 0 0 0 0 0 0 0 0 0 0 0 0 0 0 0 0 0 0 0 0 0 0 0 0 0 0 0 0 0 0 0 0 0 0 0 0 0
0 0 0 0 0 0 0 0 0 0 0 0 0 0 0 0 0 0 0 0 0 0 0 0 0 0 0 0 0 0 0 0 0 0 0 0 0 0 0 0 0 0 0 0 0 0 0 0 0
Wind_Speed
4 2 2 3 5 5 2 1 1 1 1 1 3 4 5 5 3 4 1 4 6 4 4 5 9 9 9 10 10 10 10 10 10 10 9 9 9 9 8 8 7 7 6 6 6 6 6 6 6
1 1 3 4 5 3 2 1 1 0 3 3 4 4 5 5 4 5 2 4 6 5 4 5 9 9 9 9 10 10 10 10 9 9 9 8 8 8 7 7 7 6 6 6 6 6 6 5 6
1 2 3 4 3 2 1 1 0 2 3 2 4 4 4 4 4 4 3 6 6 5 4 5 8 9 9 9 9 9 9 9 9 9 8 8 7 7 7 6 6 6 6 6 6 6 5 5 5
3 4 4 4 1 1 1 1 1 2 2 4 4 5 4 3 4 5 7 7 6 4 3 4 8 8 9 9 9 9 8 8 8 8 7 7 7 7 6 6 6 6 5 5 5 5 5 5 5
4 4 4 2 1 1 0 0 1 2 2 3 4 5 4 3 7 9 8 6 6 4 3 3 7 8 8 8 8 8 7 7 7 7 6 6 6 6 6 6 6 5 5 5 5 5 5 5 5
4 4 3 1 1 1 1 1 2 3 3 3 4 4 3 2 7 7 6 5 5 4 3 2 6 7 7 7 7 6 6 6 6 6 6 5 5 5 4 5 5 5 5 5 5 5 5 5 5
3 3 2 2 0 1 1 1 3 3 3 3 3 5 3 2 4 6 5 5 4 3 3 2 2 3 4 5 5 5 5 5 5 5 5 5 5 5 5 4 4 5 5 5 5 5 5 5 5
3 4 2 1 1 1 1 1 2 3 3 3 3 6 5 5 5 6 5 4 3 2 2 1 2 2 3 3 2 3 3 4 5 6 6 6 7 7 6 5 5 5 6 6 6 6 6 6 5
3 4 1 2 3 2 0 2 2 2 5 3 2 3 5 9 8 7 4 2 1 2 0 0 0 1 1 1 2 3 5 6 7 6 8 7 4 4 4 6 6 6 6 7 7 7 7 7 6
3 3 3 2 2 2 1 2 2 4 4 3 4 4 8 10 9 7 6 5 4 3 3 2 2 1 0 1 2 2 3 4 4 3 4 3 3 3 4 7 8 8 8 8 8 8 7 6 3
2 3 2 1 1 1 2 2 1 6 3 4 7 8 9 8 7 7 6 5 5 4 3 3 3 1 0 0 1 1 2 2 3 3 3 2 3 3 3 3 4 5 6 4 5 5 3 3 2
2 1 1 1 1 1 2 2 2 2 3 5 8 11 9 9 8 8 7 5 4 3 4 3 3 2 1 0 0 1 1 1 2 2 2 2 2 3 3 2 3 3 2 3 3 2 3 3 3
1 0 0 0 1 1 3 2 2 1 3 6 8 9 8 8 6 5 5 4 4 4 3 3 3 2 2 1 0 1 1 2 2 2 2 3 2 2 2 2 2 3 2 3 3 3 3 3 3
2 1 1 1 2 1 3 2 2 1 5 7 8 8 7 7 6 4 4 4 4 4 3 2 3 3 3 2 2 2 2 2 2 2 3 3 2 2 2 2 3 3 3 2 2 2 2 2 2
1 2 3 2 1 1 4 2 1 2 6 6 6 6 5 5 5 5 5 5 5 4 3 3 3 3 3 3 3 2 2 2 2 2 3 3 3 2 2 2 3 3 3 3 2 3 2 2 2
2 3 2 2 0 1 4 2 1 2 7 6 5 5 4 4 5 5 5 5 5 4 4 4 4 4 4 3 3 3 2 2 2 2 2 3 3 3 2 2 3 3 3 3 2 2 3 3 3
3 3 1 1 1 1 3 2 1 1 5 6 5 5 4 3 4 4 4 5 5 6 5 4 5 5 4 4 4 3 3 3 2 2 2 2 3 3 2 2 2 3 3 3 3 3 2 2 3
3 3 1 1 1 2 2 1 1 1 4 5 4 4 4 4 5 3 4 5 5 5 5 5 5 5 5 4 3 3 3 2 2 2 2 2 2 3 2 2 3 3 3 3 3 3 3 2 2
4 3 1 1 1 2 2 1 1 1 2 3 4 4 4 4 2 2 4 5 5 5 5 5 5 4 4 3 2 2 1 1 1 1 2 2 2 3 3 2 3 3 3 3 3 2 3 3 2
3 3 1 1 1 2 2 1 1 0 2 3 5 5 5 3 2 2 4 4 5 5 6 5 5 5 4 3 2 2 2 1 0 1 2 2 2 3 2 3 2 3 3 4 4 3 2 3 3
2 3 3 2 2 3 3 3 2 1 1 0 1 3 4 6 5 4 4 4 5 5 6 6 5 5 4 4 3 3 3 2 2 2 2 2 2 2 2 2 2 2 2 2 3 3 3 2 3
2 1 3 2 3 1 2 1 3 1 0 1 2 2 3 4 4 4 4 5 5 4 4 5 5 4 4 4 4 3 2 1 1 1 1 2 2 2 2 2 2 2 2 2 2 2 2 2 2
3 3 4 4 3 2 2 2 5 0 3 4 4 3 3 3 5 5 4 5 4 4 4 5 5 4 4 4 4 4 2 1 0 1 2 2 3 3 2 2 2 2 2 2 3 2 2 2 1
5 6 6 5 4 1 2 3 5 5 7 6 4 4 3 3 4 3 3 4 4 4 4 5 5 4 3 4 4 4 3 2 1 1 1 2 2 2 3 2 2 2 2 2 2 2 2 2 2
5 6 3 2 1 3 2 2 8 6 6 7 8 6 4 4 4 4 4 4 5 5 5 5 6 4 4 4 3 3 3 2 2 1 0 1 2 2 2 2 2 1 1 1 1 2 2 2 2
5 6 6 5 4 2 1 5 6 3 2 4 5 6 5 5 4 5 5 5 5 5 5 6 6 5 4 4 3 2 2 2 1 1 1 1 1 2 2 2 2 2 2 2 2 2 2 2 2
6 4 4 5 2 1 3 5 5 1 3 5 6 6 6 5 5 4 4 4 5 5 5 6 6 5 4 4 3 2 2 2 1 1 1 0 1 1 1 2 2 2 2 2 2 2 2 2 2
5 7 4 5 5 2 3 4 5 5 7 7 7 8 7 5 5 4 4 4 4 4 4 5 5 5 4 4 3 2 2 1 1 1 1 1 2 2 2 2 2 2 2 2 2 1 2 2 2
5 3 4 3 3 5 3 7 7 10 11 12 11 9 9 8 6 5 4 4 5 5 5 5 5 4 4 3 3 3 2 2 2 2 1 1 1 2 2 2 2 2 2 2 2 2 2 2 3
6 7 7 5 4 3 3 8 4 7 9 10 10 8 8 7 6 5 5 5 5 5 5 5 4 4 4 3 3 3 2 2 2 2 2 1 2 2 2 2 2 2 2 2 2 2 2 2 3
Wind_Direction
339 18 65 52 51 50 37 347 313 357 67 55 75 80 86 73 86 126 119 122 116 112 106 110 112 108 104 101 98 95 92 91 89 88 86 84 83 81 78 75 74 74 74 72 64 57 54 50 45
8 36 49 56 75 65 338 324 316 242 146 139 91 80 77 72 77 105 122 125 116 116 107 110 111 107 105 103 99 96 93 91 89 87 85 82 78 76 72 68 66 64 64 63 57 48 43 37 34
25 48 69 67 87 149 196 264 206 72 119 106 80 58 73 95 113 127 145 128 112 107 102 117 114 110 107 103 99 95 92 89 87 85 82 79 75 72 69 64 59 55 52 50 47 38 32 26 23
65 44 56 71 83 222 213 222 121 98 85 56 87 69 58 80 132 136 131 123 116 107 103 122 121 115 108 102 98 96 93 88 86 82 78 74 70 66 61 55 50 46 41 35 31 23 17 13 9
61 70 63 55 330 310 290 142 111 100 72 57 84 83 51 24 108 123 129 128 127 119 109 120 124 117 111 104 100 94 91 87 83 78 73 67 62 56 48 41 36 33 29 24 17 11 5 1 357
56 64 87 132 314 353 7 40 92 86 87 83 87 92 67 106 123 135 132 130 128 126 114 111 127 122 115 108 102 98 92 84 78 71 61 53 44 38 31 26 20 19 13 9 7 1 355 355 351
97 95 134 163 328 346 67 65 112 110 103 104 105 96 102 155 150 136 125 118 114 115 109 78 65 93 109 107 104 96 87 76 65 54 42 35 27 19 13 8 4 5 1 357 357 351 347 343 343
114 102 104 151 158 254 337 67 101 108 108 97 99 128 163 188 142 113 98 92 98 102 99 92 61 49 44 34 61 74 57 44 35 28 23 24 18 9 4 0 356 357 354 354 357 355 353 350 345
88 80 156 198 183 219 124 103 79 79 99 74 72 137 158 136 124 113 103 93 118 170 166 139 117 44 38 4 4 25 21 21 22 17 19 28 15 7 360 1 7 5 4 2 2 1 2 3 358
91 133 209 211 194 179 135 115 117 99 89 84 67 78 116 128 140 148 160 173 191 210 221 209 215 216 23 346 27 18 18 21 20 17 18 18 17 12 22 14 21 21 20 15 12 10 12 13 1
135 180 219 259 208 159 130 110 91 121 129 168 155 146 139 143 156 170 181 188 201 210 222 207 205 200 181 335 13 13 14 18 18 23 24 29 35 25 26 18 13 14 20 13 5 8 8 6 1
144 232 204 242 140 123 134 119 101 142 185 168 157 150 151 160 173 184 190 196 193 199 217 214 184 176 191 195 15 36 38 29 26 20 32 54 49 36 26 21 6 10 3 0 1 356 359 5 3
154 272 280 229 81 113 104 98 121 105 124 121 133 144 161 173 182 190 194 191 184 196 206 201 174 168 162 133 66 79 73 63 52 41 38 59 66 51 33 16 13 8 4 1 355 355 359 3 3
206 166 360 25 70 87 114 90 95 111 122 127 148 165 175 180 181 181 181 188 192 194 192 177 162 158 145 129 116 105 90 79 71 53 42 57 69 61 42 26 14 4 354 349 347 349 354 352 358
143 76 31 20 71 122 108 56 127 158 131 148 170 180 184 192 188 193 189 190 191 186 173 163 156 139 134 131 127 105 93 90 73 52 42 51 56 53 46 30 11 351 344 350 -0 4 10 14 13
83 76 48 323 60 146 129 190 239 148 149 170 185 192 195 204 205 206 191 187 177 165 159 159 143 128 124 120 108 97 90 82 66 50 42 44 49 54 49 32 5 347 353 4 10 14 14 13 12
56 110 147 318 321 111 128 196 248 144 161 181 192 200 203 211 224 216 193 181 169 164 155 141 128 126 118 104 93 85 78 68 55 44 39 37 41 45 51 33 2 358 10 12 8 22 21 13 5
153 134 136 199 270 131 134 191 291 156 163 188 194 201 209 213 228 215 184 169 158 152 145 136 126 119 109 93 82 67 57 45 38 33 22 29 29 35 42 30 10 13 20 12 11 16 20 21 2
137 126 129 249 247 133 157 171 261 183 153 190 200 202 217 228 242 190 166 155 147 144 143 143 139 137 126 110 107 100 80 32 19 6 9 20 26 29 38 26 14 17 23 9 7 15 21 17 7
119 123 110 340 62 121 117 24 306 184 181 198 198 203 207 204 189 172 157 154 156 156 154 152 152 154 152 136 130 131 127 104 25 337 358 12 18 18 31 35 20 14 16 17 18 24 24 17 22
151 162 172 170 75 61 84 4 337 326 48 81 170 198 194 195 192 181 160 157 154 157 162 161 158 158 152 133 111 87 61 40 19 0 346 342 355 12 27 27 26 21 28 15 11 21 42 29 14
194 194 151 133 108 60 111 183 284 268 250 227 213 189 189 185 174 169 163 161 163 160 147 143 149 150 147 141 135 134 133 144 250 285 311 330 351 3 13 12 24 24 22 17 7 35 37 57 27
156 92 86 89 96 62 50 131 276 183 213 224 216 201 189 176 164 163 169 168 148 137 137 134 135 135 136 135 135 127 125 150 277 353 346 345 347 356 2 9 18 15 10 9 18 28 40 53 59
117 82 62 51 65 39 224 154 255 219 206 201 195 187 173 155 144 139 129 120 114 116 120 124 127 123 122 122 123 132 138 141 109 30 351 338 337 341 353 5 11 4 2 3 12 26 43 46 58
105 100 78 50 44 246 227 194 244 235 206 188 182 178 168 155 145 139 131 129 129 129 131 131 129 123 123 121 120 131 142 145 153 178 269 323 335 332 331 352 349 351 342 352 22 38 33 32 45
162 142 153 169 191 251 218 231 254 273 190 154 151 154 152 150 149 146 145 141 138 137 136 134 133 129 129 127 122 111 121 125 143 162 167 253 271 286 310 336 348 352 356 9 28 34 16 26 27
141 163 162 127 124 148 262 281 301 108 131 143 145 148 160 160 153 146 137 137 138 138 142 145 139 131 132 132 122 111 112 110 112 96 88 342 303 317 348 2 3 0 7 19 36 28 3 11 12
138 142 120 126 145 210 271 262 238 202 190 176 171 174 172 161 152 143 138 138 136 136 131 131 134 136 132 128 130 124 123 113 98 80 60 21 350 2 17 17 13 9 8 10 36 21 2 18 3
131 140 132 126 159 158 216 259 224 198 187 183 186 181 173 169 166 156 145 138 130 126 127 129 131 128 127 130 124 113 102 87 80 67 34 15 8 15 28 26 31 24 16 8 25 11 8 10 0
161 172 155 158 198 179 181 264 273 203 186 178 177 172 168 165 160 151 143 135 130 133 135 136 138 137 139 133 121 115 98 84 74 54 21 22 24 20 25 34 40 31 27 22 25 7 14 13 1